Location: New Mesquite
(33.1168°N, 96.4336°W)
Time: 09:27:51
(UTC+00:00)

Meteor 1-27 Rocket - Pass Details

Date: 12 July 2022
Orbit: 829 x 911 km, 81.3° (Epoch: 14 August)

Event Time Altitude Azimuth Distance (km) Brightness Sun altitude
Rises 06:39:34 0° 13° (NNE) 3,391 7.8 -34.9°
Reaches altitude 10° 06:43:06 10° 36° (NE) 2,443 6.7 -34.9°
Maximum altitude 06:46:14 15° 71° (ENE) 2,084 5.9 -34.8°
Enters shadow 06:46:21 15° 72° (ENE) 2,084 5.9 -34.8°
